Regional Weather Roundup
Issued by NWS

Home | Current Version | Previous Version | Graphics & Text | Print | Product List | Glossary On
Versions: 1 2 3 4 5 6 7 8 9 10 11 12 13 14 15 16 17 18 19 20 21 22 23 24 25 26 27 28 29 30 31 32 33 34 35 36 37 38 39 40 41 42 43 44 45 46 47 48 49 50
000
ASUS45 KABQ 210801
RWRNM
NEW MEXICO REGIONAL WEATHER ROUNDUP
NATIONAL WEATHER SERVICE ALBUQUERQUE NM
100 AM MST SAT JAN 21 2017

NOTE: "FAIR" MEANS FEW OR NO CLOUDS BELOW 12,000 FEET AGL WITH NO
       SIGNIFICANT WEATHER OR OBSTRUCTIONS TO VISION.

      THIS PRODUCT IS RELEASED AS TWO VERSIONS.  ONE VERSION NEAR
      THE TOP OF THE HOUR CONTAINING PRELIMINARY DATA FROM ALBUQUERQUE
      AND OTHER STATIONS.  A FINAL VERSION WITH ADDITIONAL DATA IS
      ISSUED ABOUT 10 MINUTES AFTER THE HOUR.

NMZ501-503-504-510>518-210900-
NORTHWEST PLATEAU/NORTHCENTRAL MOUNTAINS

CITY           SKY/WX    TMP DP  RH WIND       PRES   REMARKS
FARMINGTON     LGT SNOW  32  31  96 E10       29.45F VSB 1   WCI  24
LOS ALAMOS     LGT SNOW  29  29 100 S6        29.53F WCI  23
SANTA FE       LGT SNOW  31  31 100 SE5       29.53F FOG     WCI  26
TAOS           FAIR      25  16  68 CALM      29.52F
ANGEL FIRE     FAIR      25  21  83 W22G28    29.46F WCI  10

$$
NMZ402-403-502-505>509-210900-
WESTCENTRAL MOUNTAINS/SOUTHWEST MOUNTAINS

CITY           SKY/WX    TMP DP  RH WIND       PRES   REMARKS
GALLUP         LGT SNOW  33  31  92 S10       29.45F FOG     WCI  25
GRANTS         LGT SNOW  32  32  99 SE17G24   29.50F WCI  21
SILVER CITY    LGT RAIN  37  35  92 SW14      29.60F WCI  28

$$
NMZ407-409-411-412-210900-
SOUTHERN DESERTS

CITY           SKY/WX    TMP DP  RH WIND       PRES   REMARKS
DEMING         LGT RAIN  42  40  92 S6        29.61F
LAS CRUCES     DRIZZLE   43  37  80 SW16G22   29.65F
ALAMOGORDO     LGT RAIN  43  39  87 S18G28    29.65F
T OR C         MOCLDY    40  36  86 S20G29    29.54F WCI  30

$$
NMZ519>523-210900-
CENTRAL VALLEYS/CENTRAL HIGHLANDS

CITY           SKY/WX    TMP DP  RH WIND       PRES   REMARKS
ALBUQUERQUE    CLOUDY    38  35  89 E7        29.53F WCI  33
DOUBLE EAGLE   LGT SNOW  32  32  99 E5        29.53F WCI  28
MORIARTY ARPT  CLOUDY    33  32  93 S7        29.55F WCI  27
CLINES CORNERS FLURRIES  32  30  92 W23       29.53F WCI  19
BELEN          CLOUDY    40  35  83 S10       29.53F WCI  33
SOCORRO        MOCLDY    41  35  80 S12       29.55F

$$
NMZ524>526-539-540-210900-
SOUTHCENTRAL MOUNTAINS

CITY           SKY/WX    TMP DP  RH WIND       PRES   REMARKS
RUIDOSO        NOT AVBL

$$
NMZ527>531-210900-
NORTHEAST HIGHLANDS/NORTHEAST PLAINS

CITY           SKY/WX    TMP DP  RH WIND       PRES   REMARKS
LAS VEGAS      FAIR      29  24  82 S15       29.50F WCI  18
RATON          FAIR      25  17  72 NW12      29.45F WCI  14
CLAYTON        FAIR      36  28  73 SW5       29.48F WCI  32

$$
NMZ532>537-210900-
EASTCENTRAL PLAINS

CITY           SKY/WX    TMP DP  RH WIND       PRES   REMARKS
TUCUMCARI      FAIR      34  30  85 SW9       29.52F WCI  27
CANNON AFB     MOCLDY    38  37  97 SW5       29.56F WCI  35
CLOVIS AIRPORT MOCLDY    36  28  75 W3        29.56F

$$
NMZ028-029-538-210900-
SOUTHEAST PLAINS

CITY           SKY/WX    TMP DP  RH WIND       PRES   REMARKS
ROSWELL        FAIR      49  34  56 S20G29    29.55F
ARTESIA        MOCLDY    48  37  66 S7G15     29.60F
CARLSBAD       FAIR      50  36  58 SW9       29.60F


$$




USA.gov is the U.S. government's official web portal to all federal, state and local government web resources and services.